Regional Weather Roundup
Issued by NWS Jackson, KY

Home | Current Version | Previous Version | Text Only | Print | Product List | Glossary On
Versions: 1 2 3 4 5 6 7 8 9 10 11 12 13 14 15 16 17 18 19 20 21 22 23 24 25 26 27 28 29 30 31 32 33 34 35 36 37 38 39 40 41 42 43 44 45 46 47 48 49 50
513
ASUS43 KJKL 210810
RWRJKL

EAST KENTUCKY HOURLY WEATHER ROUNDUP
NATIONAL WEATHER SERVICE JACKSON KY
300 AM EST SUN JAN 21 2018

NOTE: "FAIR" INDICATES FEW OR NO CLOUDS BELOW 12,000 FEET WITH
NO SIGNIFICANT WEATHER AND/OR OBSTRUCTIONS TO VISIBILITY.

* THESE REPORTS ARE NOT UNDER NWS QUALITY CONTROL AND MAY NOT
  REPORT WEATHER SUCH AS PRECIPITATION AND FOG.

KYZ079-080-083-085-087-088-110-112-115-119-120-210900
...EASTERN KENTUCKY...

CITY           SKY/WX    TMP DP  RH WIND       PRES   REMARKS
JACKSON        CLOUDY    48  35  60 SW3       30.17R
LONDON         CLOUDY    43  36  76 W3        30.18S
SOMERSET*      CLOUDY    43  34  70 W6        30.20R
MONTICELLO*    CLOUDY    44  39  82 N8        30.19F
WILLIAMSBURG*  PTSUNNY   48  34  57 SE3       30.19R
MIDDLESBORO*   CLOUDY    37  34  91 CALM      30.21S
HARLAN APT*    CLOUDY    36  32  87 CALM      30.21S
PIKE CO APT*   CLOUDY    44  35  69 SE6       30.17S
BIG SANDY APT* CLOUDY    45  36  72 S5        30.17S
MOREHEAD APT*  CLOUDY    48  37  66 S12       30.16S
ASHLAND*       CLOUDY    39  36  89 E5        30.15S
$$

KYZ035-036-041-042-044-050-067-078-099-210900
...CENTRAL KENTUCKY...

CITY           SKY/WX    TMP DP  RH WIND       PRES   REMARKS
MT STERLING*   CLOUDY    48  36  61 SW6       30.16R
FLEMING/MASON* CLOUDY    45  37  72 SW9       30.15R
DANVILLE*      CLOUDY    46  36  66 SW12      30.16S
LEXINGTON      CLOUDY    50  38  63 S9        30.13F
FRANKFORT      CLOUDY    51  37  58 S9        30.11S
LOUISVILLE     MOCLDY    54  41  61 S10       30.09F
LEBANON*         N/A     50  37  62 S10       30.13F
GLASGOW*       CLOUDY    52  37  56 S7        30.14S
BOWLING GREEN  CLOUDY    52  39  61 S9        30.13S
$$

KYZ091>093-OHZ055-061-077-WVZ005-015-034-035-042-210900
...SOUTHERN OHIO/WEST VIRGINIA...

CITY           SKY/WX    TMP DP  RH WIND       PRES   REMARKS
COVINGTON      CLOUDY    48  42  80 S8        30.09S
COLUMBUS       LGT RAIN  40  39  97 S3        30.12R FOG
DAYTON         FOG       40  40 100 S8        30.09S VSB 1/4 WCI  34
WILMINGTON     CLOUDY    40  40 100 S5        30.10S
HUNTINGTON     CLOUDY    50  36  58 S9        30.15S
CHARLESTON     CLOUDY    48  39  71 S5        30.17R
BECKLEY        CLOUDY    43  35  73 SW3       30.19R
BLUEFIELD        N/A     39  31  72 SW5       30.20R
LOGAN CO APT*  CLOUDY    46  36  66 CALM      30.18S
$$

VAZ002-007-008-TNZ017-027-036-066-071-210900
...SOUTHWEST VIRGINIA/EAST TENNESSEE...

CITY           SKY/WX    TMP DP  RH WIND       PRES   REMARKS
WISE*          CLOUDY    46  36  66 SW10      30.21S
JONESVILLE*    CLOUDY    34  32  93 CALM      30.25S
ABINGDON*      CLOUDY    36  34  92 CALM      30.22S
BRISTOL        CLOUDY    33  33 100 CALM      30.24R
MORRISTOWN*    CLOUDY    39  32  75 CALM      30.21S
SEVIERVILLE*   SUNNY     34  32  93 CALM      30.22S
KNOXVILLE        N/A     38  35  89 CALM      30.21S
LAFOLLETTE*    MOSUNNY   36  32  87 CALM      30.24S
OAK RIDGE      CLOUDY    41  35  79 CALM      30.23R
CROSSVILLE     CLOUDY    47  34  60 S3        30.20S
NASHVILLE      CLOUDY    54  37  52 S10       30.16S
$$

...KEY TO REMARKS...
VSB - VISIBILITY IN MILES
WCI - WIND CHILL INDEX
HX  - HEAT INDEX

$$




USA.gov is the U.S. government's official web portal to all federal, state and local government web resources and services.